Find Starlink 32106

NORAD ID: 59690 Int'l Des: 2024-086 Owner: SPXS Country: US Constellation: starlink operational
LEOCIRCULAR

Current View

Loading 3D Globe...

About Starlink 32106

Starlink 32106 (NORAD 59690) is a starlink constellation satellite (v2 mini) launched May 8, 2024 by SPXS of US. It operates in LEO, CIRCULAR orbit with a mass of 730.00 kg.

About Starlink 32106

Description loading...

Upcoming Passes

Passes for default location (London). Set your location on the main map for personalized predictions.

Altitude History

Loading altitude history...

Two-Line Element Set

1 59690U 24086J 26171.36609466 -.00002631 00000-0 -85982-4 0 9996
2 59690 43.0018 192.3809 0001750 277.9193 82.1460 15.27630504119904
Epoch: Jun 20, 2026 • Age: 15 hours

Current Status

Altitude 482.6 km
Velocity 7.63 km/s
Sub-Earth Point 13.59°N, 90.67°E
Launch Date May 8, 2024
Age 2.1 years
Type internet

Technical Details

Classification Payload
Mass 730.00 kg
Dry Mass 700.00 kg
Total Mass 730.00 kg
Length 0.30 m
Diameter 4.10 m
Span 29.00 m
Shape Box + pan
Manufacturer SPXS
Bus Type Starlink V2M
Phase Status In Orbit
Owner/State SPXS/US

Most Searched